When you browse on this site, cookies collect data to enhance your experience and personalize the content and advertising you see.
Visit our Privacy Policy to learn more. By continuing to use the site, you agree to this use of cookies and data.

Tiempo cada hora Peñaflor

Hoy, 4 Agosto, Martes

Tiempo Temperatura Precipitaciones Viento Presión Humedad
00:00 +11°C° 0 mm 0 mps 731 mmHg 87%
01:00 +11°C° 0 mm 0 mps 731 mmHg 87%
02:00 +11°C° 0 mm 0 mps 731 mmHg 87%
03:00 +10°C° 0 mm 0 mps 731 mmHg 86%
04:00 +10°C° 0 mm 0 mps 731 mmHg 86%
05:00 +10°C° 0 mm 0 mps 731 mmHg 85%
06:00 +10°C° 0 mm 0 mps 731 mmHg 84%
07:00 +11°C° 0 mm 1 mps 731 mmHg 84%
08:00 +12°C° 0 mm 0 mps 731 mmHg 77%
09:00 +14°C° 0 mm 0 mps 731 mmHg 71%
10:00 +16°C° 0 mm 0 mps 731 mmHg 64%
11:00 +20°C° 0 mm 1 mps 731 mmHg 59%
12:00 +21°C° 0 mm 1 mps 731 mmHg 53%
13:00 +22°C° 0 mm 1 mps 731 mmHg 48%
14:00 +22°C° 0 mm 1 mps 731 mmHg 52%
15:00 +22°C° 0 mm 1 mps 731 mmHg 55%
16:00 +21°C° 0 mm 1 mps 731 mmHg 59%
17:00 +19°C° 0 mm 1 mps 731 mmHg 65%
18:00 +16°C° 0 mm 1 mps 731 mmHg 72%
19:00 +15°C° 0 mm 1 mps 732 mmHg 78%
20:00 +13°C° 0 mm 0 mps 732 mmHg 79%
21:00 +13°C° 0 mm 0 mps 732 mmHg 81%
22:00 +12°C° 0 mm 0 mps 732 mmHg 82%
23:00 +12°C° 0 mm 0 mps 732 mmHg 83%

Mañana, 5 Agosto, Miércoles

Tiempo Temperatura Precipitaciones Viento Presión Humedad
00:00 +12°C° 0 mm 0 mps 733 mmHg 84%
01:00 +12°C° 0 mm 0 mps 733 mmHg 84%
02:00 +12°C° 0.1 mm 0 mps 733 mmHg 84%
03:00 +12°C° 0.1 mm 0 mps 733 mmHg 85%
04:00 +12°C° 0.1 mm 0 mps 733 mmHg 85%
05:00 +12°C° 0.2 mm 0 mps 733 mmHg 85%
06:00 +12°C° 0.2 mm 0 mps 734 mmHg 85%
07:00 +12°C° 0.2 mm 0 mps 734 mmHg 86%
08:00 +13°C° 0.2 mm 0 mps 734 mmHg 84%
09:00 +15°C° 0.2 mm 1 mps 734 mmHg 82%
10:00 +16°C° 0.2 mm 1 mps 735 mmHg 80%
11:00 +16°C° 0 mm 1 mps 734 mmHg 79%
12:00 +17°C° 0 mm 2 mps 734 mmHg 78%
13:00 +17°C° 0 mm 2 mps 734 mmHg 78%
14:00 +17°C° 0 mm 2 mps 734 mmHg 79%
15:00 +17°C° 0 mm 2 mps 734 mmHg 80%
16:00 +16°C° 0 mm 2 mps 734 mmHg 81%
17:00 +16°C° 0 mm 2 mps 734 mmHg 84%
18:00 +15°C° 0 mm 1 mps 734 mmHg 86%
19:00 +14°C° 0 mm 1 mps 734 mmHg 89%
20:00 +13°C° 0 mm 1 mps 734 mmHg 89%
21:00 +13°C° 0 mm 1 mps 734 mmHg 89%
22:00 +12°C° 0 mm 1 mps 734 mmHg 89%
23:00 +12°C° 0 mm 1 mps 733 mmHg 89%

Pasado mañana, 6 Agosto, Jueves

Tiempo Temperatura Precipitaciones Viento Presión Humedad
00:00 +12°C° 0 mm 1 mps 733 mmHg 88%
01:00 +11°C° 0 mm 1 mps 732 mmHg 88%
02:00 +11°C° 0 mm 1 mps 732 mmHg 87%
03:00 +11°C° 0 mm 1 mps 732 mmHg 87%
04:00 +11°C° 0 mm 1 mps 731 mmHg 86%
05:00 +11°C° 0 mm 1 mps 732 mmHg 86%
06:00 +10°C° 0 mm 1 mps 732 mmHg 86%
07:00 +10°C° 0 mm 1 mps 732 mmHg 85%
08:00 +12°C° 0 mm 1 mps 732 mmHg 79%
09:00 +14°C° 0 mm 1 mps 732 mmHg 73%
10:00 +15°C° 0 mm 1 mps 732 mmHg 67%
11:00 +16°C° 0 mm 1 mps 732 mmHg 66%
12:00 +18°C° 0 mm 1 mps 731 mmHg 65%
13:00 +18°C° 0 mm 2 mps 731 mmHg 64%
14:00 +17°C° 0 mm 2 mps 731 mmHg 66%
15:00 +17°C° 0 mm 2 mps 731 mmHg 69%
16:00 +16°C° 0 mm 2 mps 730 mmHg 72%
17:00 +15°C° 0 mm 1 mps 731 mmHg 77%
18:00 +13°C° 0 mm 1 mps 731 mmHg 82%
19:00 +11°C° 0 mm 1 mps 731 mmHg 87%
20:00 +11°C° 0 mm 1 mps 731 mmHg 88%
21:00 +11°C° 0 mm 1 mps 731 mmHg 88%
22:00 +9°C° 0 mm 0 mps 731 mmHg 88%
23:00 +9°C° 0 mm 0 mps 731 mmHg 87%

7 Agosto, Viernes

Tiempo Temperatura Precipitaciones Viento Presión Humedad
00:00 +9°C° 0 mm 0 mps 730 mmHg 87%
01:00 +9°C° 0 mm 0 mps 730 mmHg 86%
02:00 +9°C° 0 mm 0 mps 730 mmHg 86%
03:00 +9°C° 0 mm 0 mps 730 mmHg 85%
04:00 +8°C° 0 mm 0 mps 730 mmHg 85%
05:00 +8°C° 0 mm 0 mps 730 mmHg 85%
06:00 +8°C° 0 mm 0 mps 730 mmHg 84%
07:00 +8°C° 0 mm 0 mps 730 mmHg 84%
08:00 +10°C° 0 mm 0 mps 730 mmHg 77%
09:00 +13°C° 0 mm 0 mps 731 mmHg 70%
10:00 +15°C° 0 mm 0 mps 731 mmHg 64%
11:00 +18°C° 0 mm 1 mps 731 mmHg 61%
12:00 +19°C° 0 mm 1 mps 731 mmHg 59%
13:00 +20°C° 0 mm 1 mps 730 mmHg 56%
14:00 +20°C° 0 mm 1 mps 730 mmHg 60%
15:00 +19°C° 0 mm 1 mps 730 mmHg 64%
16:00 +19°C° 0 mm 1 mps 730 mmHg 68%
17:00 +16°C° 0 mm 1 mps 731 mmHg 74%
18:00 +14°C° 0 mm 1 mps 731 mmHg 79%
19:00 +13°C° 0 mm 1 mps 731 mmHg 85%
20:00 +11°C° 0 mm 0 mps 731 mmHg 86%
21:00 +11°C° 0 mm 0 mps 731 mmHg 86%
22:00 +11°C° 0 mm 0 mps 731 mmHg 86%
23:00 +11°C° 0 mm 0 mps 731 mmHg 86%

8 Agosto, Sábado

Tiempo Temperatura Precipitaciones Viento Presión Humedad
00:00 +11°C° 0 mm 0 mps 731 mmHg 86%
01:00 +11°C° 0 mm 0 mps 731 mmHg 86%
02:00 +10°C° 0 mm 0 mps 731 mmHg 86%
03:00 +10°C° 0 mm 0 mps 731 mmHg 86%
04:00 +10°C° 0 mm 0 mps 730 mmHg 87%
05:00 +10°C° 0 mm 0 mps 731 mmHg 86%
06:00 +10°C° 0 mm 0 mps 731 mmHg 85%
07:00 +10°C° 0 mm 0 mps 731 mmHg 84%
08:00 +12°C° 0 mm 0 mps 732 mmHg 77%
09:00 +14°C° 0 mm 0 mps 732 mmHg 71%
10:00 +19°C° 0 mm 1 mps 732 mmHg 64%
11:00 +19°C° 0 mm 1 mps 732 mmHg 62%
12:00 +20°C° 0 mm 1 mps 732 mmHg 60%
13:00 +20°C° 0 mm 2 mps 731 mmHg 58%
14:00 +20°C° 0 mm 1 mps 731 mmHg 62%
15:00 +20°C° 0 mm 1 mps 731 mmHg 66%
16:00 +19°C° 0 mm 1 mps 731 mmHg 71%
17:00 +18°C° 0 mm 1 mps 731 mmHg 75%
18:00 +15°C° 0 mm 1 mps 731 mmHg 78%
19:00 +13°C° 0 mm 0 mps 731 mmHg 82%
20:00 +13°C° 0 mm 0 mps 731 mmHg 83%
21:00 +12°C° 0 mm 0 mps 731 mmHg 83%
22:00 +12°C° 0 mm 0 mps 731 mmHg 83%
23:00 +12°C° 0 mm 0 mps 731 mmHg 84%

9 Agosto, Domingo

Tiempo Temperatura Precipitaciones Viento Presión Humedad
00:00 +12°C° 0 mm 0 mps 731 mmHg 84%
01:00 +12°C° 0 mm 0 mps 731 mmHg 85%
02:00 +12°C° 0 mm 0 mps 730 mmHg 85%
03:00 +11°C° 0 mm 0 mps 730 mmHg 86%
04:00 +11°C° 0 mm 0 mps 730 mmHg 86%
05:00 +11°C° 0 mm 0 mps 731 mmHg 87%
06:00 +11°C° 0 mm 0 mps 731 mmHg 87%
07:00 +12°C° 0 mm 1 mps 731 mmHg 88%
08:00 +13°C° 0 mm 1 mps 731 mmHg 84%
09:00 +13°C° 0 mm 1 mps 732 mmHg 81%
10:00 +14°C° 0 mm 1 mps 732 mmHg 78%
11:00 +15°C° 0 mm 1 mps 731 mmHg 73%
12:00 +16°C° 0 mm 1 mps 731 mmHg 68%
13:00 +16°C° 0 mm 2 mps 731 mmHg 64%
14:00 +16°C° 0 mm 1 mps 731 mmHg 65%
15:00 +16°C° 0 mm 1 mps 731 mmHg 66%
16:00 +16°C° 0 mm 1 mps 731 mmHg 67%
17:00 +14°C° 0 mm 1 mps 732 mmHg 71%
18:00 +13°C° 0 mm 1 mps 732 mmHg 76%
19:00 +11°C° 0 mm 0 mps 732 mmHg 81%
20:00 +10°C° 0 mm 0 mps 732 mmHg 82%
21:00 +10°C° 0 mm 0 mps 733 mmHg 82%
22:00 +9°C° 0 mm 0 mps 733 mmHg 82%
23:00 +9°C° 0 mm 0 mps 733 mmHg 81%
Mostrar más